Location: ??????????
(42.1626°N, 44.1160°E)
Time: 15:07:19
(UTC+00:00)

COSMOS 2428 - Pass Details

Date: 03 March 2021
Orbit: 845 x 858 km, 70.9° (Epoch: 21 April)

Event Time Altitude Azimuth Distance (km) Brightness Sun altitude
Rises 17:34:02 0° 212° (SSW) 3,390 6.0 -29.7°
Reaches altitude 10° 17:36:30 10° 215° (SW) 2,459 5.3 -30.1°
Maximum altitude 17:42:06 63° 297° (WNW) 939 3.0 -31.1°
Enters shadow 17:42:21 63° 312° (NW) 945 3.0 -31.1°
Exits shadow 17:50:12 - 22° (NNE) 3,402 5.9 -32.5°
Sets 17:50:15 0° 22° (NNE) 3,420 5.9 -32.5°
